TimeCDT,TemperatureF,Dew PointF,Humidity,Sea Level PressureIn,VisibilityMPH,Wind Direction,Wind SpeedMPH,Gust SpeedMPH,PrecipitationIn,Events,Conditions,WindDirDegrees,DateUTC
12:50 AM,62.6,60.8,94,29.68,4.0,Calm,Calm,-,N/A,Rain,Rain,0,2013-09-21 05:50:00
1:47 AM,64.4,62.6,94,30.12,4.0,SSE,6.9,-,N/A,Rain,Rain,150,2013-09-21 06:47:00
4:44 AM,62.6,62.6,100,30.09,0.5,SSE,6.9,-,N/A,Rain,Heavy Rain,160,2013-09-21 09:44:00
5:43 AM,62.6,60.8,94,30.09,1.0,East,5.8,-,N/A,Rain,Rain,100,2013-09-21 10:43:00
6:45 AM,62.6,60.8,94,29.68,5.0,Calm,Calm,-,N/A,,Overcast,0,2013-09-21 11:45:00
7:50 AM,60.8,60.8,100,30.10,10.0,South,5.8,-,N/A,,Overcast,170,2013-09-21 12:50:00
8:18 AM,62.6,60.8,94,30.12,1.0,Calm,Calm,-,N/A,,Overcast,0,2013-09-21 13:18:00
8:44 AM,62.6,60.8,94,30.12,1.0,Calm,Calm,-,N/A,,Overcast,0,2013-09-21 13:44:00
9:48 AM,64.4,62.6,94,29.78,2.0,Calm,Calm,-,N/A,,Overcast,0,2013-09-21 14:48:00
10:48 AM,68.0,60.8,78,30.15,5.0,Calm,Calm,-,N/A,,Overcast,0,2013-09-21 15:48:00
11:40 AM,71.6,62.6,73,30.15,6.0,Calm,Calm,-,N/A,,Overcast,0,2013-09-21 16:40:00
12:47 PM,73.4,60.8,65,29.73,7.0,WSW,4.6,-,N/A,,Overcast,240,2013-09-21 17:47:00
2:43 PM,77.0,60.8,57,30.06,10.0,Calm,Calm,-,N/A,,Overcast,0,2013-09-21 19:43:00
3:45 PM,77.0,60.8,57,29.65,10.0,WSW,3.5,-,N/A,,Overcast,250,2013-09-21 20:45:00
4:46 PM,78.8,59.0,51,30.03,10.0,Calm,Calm,-,N/A,,Overcast,0,2013-09-21 21:46:00
5:47 PM,73.4,62.6,69,30.00,10.0,WSW,5.8,-,N/A,,Overcast,250,2013-09-21 22:47:00
6:47 PM,73.4,62.6,69,29.64,10.0,SSW,5.8,-,N/A,,Overcast,200,2013-09-21 23:47:00
7:42 PM,69.8,64.4,83,30.03,10.0,Calm,Calm,-,N/A,,Overcast,0,2013-09-22 00:42:00
8:43 PM,66.2,64.4,94,30.06,8.0,NNW,5.8,-,N/A,,Overcast,340,2013-09-22 01:43:00
9:47 PM,66.2,62.6,88,29.73,8.0,North,3.5,-,N/A,,Overcast,350,2013-09-22 02:47:00
10:46 PM,64.4,62.6,94,30.06,6.0,NW,3.5,-,N/A,,Overcast,310,2013-09-22 03:46:00
11:50 PM,66.2,62.6,88,30.09,6.0,ESE,8.1,-,N/A,,Overcast,120,2013-09-22 04:50:00